User: anonymous   Login
Location: Astronight Observatory
(42.6003°N, 71.2981°W)
Time: 22:47:15
(UTC-04:00)
Language:

DELTA 2 R/B (1) - Orbit

View from above orbital plane
View from above orbital plane
View from above satellite
View from above satellite

Ground track
Ground track

The orbit data is extracted from the following two-line orbital elements,

1 27665U 03005C   15115.48343303  .00000234  00000-0  12639-3 0  9998
2 27665 039.5744 140.4345 0008855 218.4443 293.1196 14.28327792638848
Epoch (UTC): 25 April 2015 11:36:08
Eccentricity: 0.0008855
inclination: 39.5744°
perigee height: 791 km
apogee height: 803 km
right ascension of ascending node: 140.4345°
argument of perigee: 218.4443°
revolutions per day: 14.28327792
mean anomaly at epoch: 293.1196°
orbit number at epoch: 63884

The dashed part of the orbit path shows where the satellite is in the earth's shadow,  

DLR